This is the latest recevied weather packets stored in our database for station/object KC4QLP. If no packets are shown the sender has not sent any weather packets the latest 10 day(s).
| Time | Temp. | Humidity | Pressure | Rain* | Wind** | Luminosity | Snow |
|---|---|---|---|---|---|---|---|
| 1777480221 | 17.22° C | 63% | 1007.9 hPa | 0 mm | - | 0 W/m² | - |
| 1777478421 | 17.22° C | 62% | 1008 hPa | 0 mm | - | 0 W/m² | - |
| 1777476622 | 17.78° C | 62% | 1008 hPa | 0 mm | - | 0 W/m² | - |
| 1777474822 | 17.78° C | 60% | 1008.2 hPa | 0 mm | - | 0 W/m² | - |
| 1777473021 | 17.22° C | 61% | 1008.7 hPa | 0 mm | - | 0 W/m² | - |
| 1777471222 | 16.11° C | 64% | 1008.9 hPa | 0 mm | - | 0 W/m² | - |
| 1777469421 | 15° C | 67% | 1009.9 hPa | 0 mm | - | 0 W/m² | - |
| 1777467621 | 15° C | 66% | 1010.2 hPa | 0 mm | - | 0 W/m² | - |
| 1777465822 | 14.44° C | 67% | 1010.4 hPa | 0 mm | - | 0 W/m² | - |
| 1777464022 | 13.33° C | 70% | 1010.6 hPa | 0 mm | - | 0 W/m² | - |
| 1777462221 | 12.22° C | 77% | 1011.3 hPa | 0 mm | - | 0 W/m² | - |
| 1777460422 | 12.22° C | 60% | 1011.1 hPa | 0 mm | - | 0 W/m² | - |
| 1777458621 | 12.22° C | 60% | 1011.1 hPa | 0 mm | - | 0 W/m² | - |
| 1777456822 | 12.22° C | 60% | 1011.3 hPa | 0 mm | - | 0 W/m² | - |
| 1777455022 | 12.22° C | 60% | 1011 hPa | 0 mm | - | 0 W/m² | - |
| 1777453222 | 12.22° C | 60% | 1011.2 hPa | 0 mm | - | 0 W/m² | - |
| 1777451422 | 12.22° C | 60% | 1010.9 hPa | 0 mm | - | 0 W/m² | - |
| 1777449623 | 12.22° C | 60% | 1010.9 hPa | 0 mm | - | 0 W/m² | - |
| 1777447822 | 12.22° C | 60% | 1010.9 hPa | 0 mm | - | 0 W/m² | - |
| 1777446022 | 12.22° C | 60% | 1010.9 hPa | 0 mm | - | 0 W/m² | - |
| 1777444222 | 12.22° C | 60% | 1011.6 hPa | 0 mm | - | 0 W/m² | - |
| 1777442422 | 12.22° C | 60% | 1012 hPa | 0 mm | - | 0 W/m² | - |
| 1777440622 | 12.22° C | 60% | 1012.6 hPa | 0 mm | - | 0 W/m² | - |
| 1777438822 | 12.22° C | 60% | 1012.7 hPa | 0 mm | - | 0 W/m² | - |
| 1777437022 | 12.22° C | 60% | 1012.5 hPa | 0 mm | - | 0 W/m² | - |
* Rain latest hour (hover to see other rain measurements)
** Current wind speed in m/s (hover to see current wind gust speed)